Weather History for Fort Polk, LA

Change the Weather History Date:

Saturday, August 3, 2013

  Actual Average Record
Temperature  
Mean Temperature 86 °F -  
Max Temperature 96 °F 91 °F 102 °F (2011)
Min Temperature 75 °F 71 °F 69 °F (1997)
Cooling Degree Days 20    
Growing Degree Days 36 (Base 50)    
Moisture  
Dew Point 71 °F    
Average Humidity 66    
Maximum Humidity 94    
Minimum Humidity 37    
Precipitation  
Precipitation 0.00 in - - ()
Sea Level Pressure  
Sea Level Pressure 30.02 in    
Wind  
Wind Speed 4 mph (SSW)    
Max Wind Speed 7 mph    
Max Gust Speed -    
Visibility 10 miles    
Events      
Averages and records for this station are not official NWS values.
T = Trace of Precipitation, MM = Missing Value Source: NWS Daily Summary

Daily Weather History Graph

Daily Weather History Graph

Search for Another Location

Airport:

Trip Planner

Search our weather history database for the weather conditions in past years. The results will help you decide how hot, cold, wet, or windy it might be!

Date:

Astronomy

Aug. 03, 2013 Rise Set
Actual Time 6:31 AM CDT 8:06 PM CDT
Civil Twilight 6:05 AM CDT 8:32 PM CDT
Nautical Twilight 5:33 AM CDT 9:03 PM CDT
Astronomical Twilight 5:00 AM CDT 9:36 PM CDT
Moon 3:43 AM CDT (8/3) 5:47 PM CDT (8/3)
Length of Visible Light 14h 27m
Length of Day
13h 34m
Waning Crescent, 9% of the Moon is Illuminated
Aug 3
Waning Crescent
Aug 6
New
Aug 14
First Quarter
Aug 20
Full
Aug 28
Last Quarter

Hourly Weather History & Observations

Time (CDT) Temp. Heat Index Dew Point Humidity Pressure Visibility Wind Dir Wind Speed Gust Speed Precip Events Conditions
12:55 AM 80.1 °F 84.5 °F 73.9 °F 81% 30.00 in 10.0 mi South 3.5 mph - N/A   Clear
1:55 AM 78.1 °F - 73.0 °F 84% 29.99 in 10.0 mi South 3.5 mph - N/A   Clear
2:55 AM 79.0 °F - 73.0 °F 82% 29.99 in 10.0 mi SW 3.5 mph - N/A   Clear
3:55 AM 78.1 °F - 73.0 °F 84% 29.99 in 10.0 mi Calm Calm - N/A   Clear
4:55 AM 77.0 °F - 73.0 °F 88% 29.99 in 10.0 mi Calm Calm - N/A   Clear
5:55 AM 75.9 °F - 73.0 °F 91% 30.00 in 10.0 mi Calm Calm - N/A   Clear
6:55 AM 75.9 °F - 73.9 °F 94% 30.01 in 9.0 mi Calm Calm - N/A   Clear
7:55 AM 78.1 °F - 73.9 °F 87% 30.03 in 10.0 mi WSW 4.6 mph - N/A   Clear
8:55 AM 82.0 °F 88.6 °F 75.0 °F 79% 30.04 in 10.0 mi WSW 4.6 mph - N/A   Clear
9:55 AM 84.0 °F 90.2 °F 73.0 °F 69% 30.06 in 10.0 mi West 6.9 mph - N/A   Clear
10:55 AM 87.1 °F 92.8 °F 71.1 °F 59% 30.07 in 10.0 mi WSW 6.9 mph - N/A   Clear
11:55 AM 89.1 °F 94.1 °F 70.0 °F 53% 30.06 in 10.0 mi South 6.9 mph - N/A   Clear
12:55 PM 91.0 °F 96.6 °F 70.0 °F 50% 30.06 in 10.0 mi West 5.8 mph - N/A   Clear
1:55 PM 93.0 °F 96.4 °F 66.9 °F 42% 30.04 in 10.0 mi Variable 6.9 mph - N/A   Clear
2:55 PM 93.9 °F 98.6 °F 68.0 °F 43% 30.02 in 10.0 mi Calm Calm - N/A   Partly Cloudy
3:55 PM 96.1 °F 101.6 °F 69.1 °F 41% 30.01 in 10.0 mi SSE 6.9 mph - N/A   Scattered Clouds
4:55 PM 95.0 °F 97.4 °F 64.9 °F 37% 29.99 in 10.0 mi East 6.9 mph - N/A   Clear
5:55 PM 93.9 °F 98.6 °F 68.0 °F 43% 30.00 in 10.0 mi South 4.6 mph - N/A   Clear
6:55 PM 93.0 °F 99.0 °F 70.0 °F 47% 29.99 in 10.0 mi SSE 4.6 mph - N/A   Clear
7:55 PM 89.1 °F 96.0 °F 72.0 °F 57% 30.01 in 10.0 mi SSE 3.5 mph - N/A   Clear
8:55 PM 87.1 °F 93.6 °F 72.0 °F 61% 30.02 in 10.0 mi SE 6.9 mph - N/A   Scattered Clouds
9:55 PM 84.0 °F 89.6 °F 72.0 °F 67% 30.04 in 10.0 mi SSE 4.6 mph - N/A   Mostly Cloudy
10:55 PM 82.9 °F 88.8 °F 73.0 °F 72% 30.05 in 10.0 mi South 3.5 mph - N/A   Clear
11:55 PM 82.0 °F 87.9 °F 73.9 °F 76% 30.06 in 10.0 mi South 5.8 mph - N/A   Clear